Flag for U.S.A. Weather past 2 weeks in Fayetteville, North Carolina, U.S.A.

Now
80 °F

Sunny.


Feels Like: 82 °F
Forecast: 61 / 81 °F
Wind: 7 mph from Northeast

Location: Fayetteville Regional Airport

Current Time: Oct 1, 2014 at 5:21:37 PM

Latest Report: Oct 1, 2014 at 4:53 PM


Visibility: 10 mi

Pressure: 29.95 "Hg

Humidity: 60%

Dew point: 65 °F

Location of FayettevilleLocation

Historic Weather in Fayetteville — Graph

°F

Fayetteville temperature yesterday

Maximum temperature yesterday: 80 °F (at 2:53 PM)
Minimum temperature yesterday: 59 °F (at 5:53 AM)
Average temperature yesterday: 67 °F

Past Weeks' High & Low Weather Summary

 TemperatureHumidityPressure
High88 °F (Sep 21, 3:53 PM)100% (Sep 30, 3:02 AM)30.26 "Hg (Sep 30, 3:02 AM)
Low57 °F (Sep 23, 9:53 PM)39% (Sep 22, 2:53 PM)29.79 "Hg (Sep 21, 3:53 PM)
Average69 °F81%30.04 "Hg
* Reported Sep 16 3:53 PM — Oct 1 3:53 PM, Fayetteville, Weather by CustomWeather, © 2014

Note: Actual official high and low records may vary slightly from our data, if they occured in-between our weather recording intervals... More about our weather records

Advertising

Fayetteville weather history for previous 24 hours

 ConditionsComfort  
Time TempWeatherWind HumidityBarometerVisibility
3:53 PM
Oct 1
81 °FPassing clouds.5 mph56%29.95 "Hg10 mi
2:53 PM82 °FSunny.8 mph56%29.96 "Hg10 mi
1:53 PM79 °FPassing clouds.5 mph62%29.97 "Hg10 mi
12:53 PM79 °FSunny.No wind60%29.99 "Hg10 mi
11:53 AM75 °FSunny.3 mph69%30.00 "Hg10 mi
10:53 AM72 °FSunny.No wind73%30.00 "Hg10 mi
10:00 AM67 °FFog.No wind90%30.01 "Hg4 mi
8:53 AM62 °FFog.3 mph96%29.97 "Hg0 mi
7:53 AM60 °FFog.3 mph100%29.95 "Hg0 mi
6:53 AM60 °FFog.5 mph100%29.93 "Hg1 mi
5:53 AM60 °FFog.No wind100%29.91 "Hg0 mi
4:53 AM60 °FFog.3 mph96%29.90 "Hg0 mi
3:53 AM61 °FFog.3 mph97%29.88 "Hg0 mi
2:53 AM61 °FFog.5 mph97%29.89 "Hg1 mi
1:53 AM63 °FFog.3 mph97%29.89 "Hg3 mi
12:53 AM64 °FFog.3 mph97%29.89 "Hg6 mi
11:53 PM
Sep 30
65 °FClear.3 mph94%29.90 "Hg10 mi
10:53 PM65 °FClear.3 mph94%29.89 "Hg10 mi
9:53 PM68 °FClear.No wind87%29.88 "Hg10 mi
8:53 PM67 °FClear.3 mph93%29.88 "Hg10 mi
7:53 PM70 °FSunny.No wind84%29.85 "Hg10 mi
6:53 PM73 °FSunny.3 mph76%29.85 "Hg10 mi
5:53 PM78 °FSunny.7 mph62%29.83 "Hg10 mi
Weather by CustomWeather, © 2014

See weather overviewHow to use our weather pages